User: anonymous   Login
Location: Unspecified
(0.0000°N, 0.0000°E)
Time: 03:21:57
(UTC+02:00)
Language:

CZ-4B DEB - Orbit

View from above orbital plane
View from above orbital plane
View from above satellite
View from above satellite

Ground track
Ground track

The orbit data is extracted from the following two-line orbital elements,

1 33411U 08053D   15144.52076823  .00015827  00000-0  61956-3 0  9999
2 33411 097.4879 165.5814 0010266 145.5684 214.6221 15.25849951360046
Epoch (UTC): 24 May 2015 12:29:54
Eccentricity: 0.0010266
inclination: 97.4879°
perigee height: 481 km
apogee height: 495 km
right ascension of ascending node: 165.5814°
argument of perigee: 145.5684°
revolutions per day: 15.25849951
mean anomaly at epoch: 214.6221°
orbit number at epoch: 36004

The dashed part of the orbit path shows where the satellite is in the earth's shadow,  

DLR